• In Belgium
  • List of Countries
  • For 7 days
  • Water Temperature
  • Satellite Maps
  • Weather Map
  • Weather Widgets
  • user-avatar
    Login

    Hourly Weather Mamakan

    Today, 16 July, Monday

    Time Temperature Precipitation Wind Pressure Humidity
    00:00 +16°C° 0 mm 0 mps 722 mmHg 78%
    01:00 +15°C° 0 mm 0 mps 722 mmHg 80%
    02:00 +16°C° 0 mm 1 mps 722 mmHg 80%
    03:00 +18°C° 0 mm 1 mps 722 mmHg 79%
    04:00 +18°C° 0 mm 1 mps 723 mmHg 79%
    05:00 +19°C° 0 mm 1 mps 723 mmHg 78%
    06:00 +20°C° 0 mm 1 mps 723 mmHg 73%
    07:00 +22°C° 0 mm 1 mps 723 mmHg 68%
    08:00 +21°C° 0 mm 0 mps 723 mmHg 66%
    09:00 +25°C° 0.3 mm 1 mps 723 mmHg 62%
    10:00 +26°C° 0.3 mm 1 mps 722 mmHg 58%
    11:00 +28°C° 0.3 mm 1 mps 722 mmHg 54%
    12:00 +28°C° 0.5 mm 1 mps 722 mmHg 53%
    13:00 +28°C° 0.5 mm 1 mps 722 mmHg 52%
    14:00 +28°C° 0 mm 1 mps 722 mmHg 53%
    15:00 +28°C° 0.6 mm 1 mps 722 mmHg 53%
    16:00 +28°C° 0.6 mm 2 mps 722 mmHg 54%
    17:00 +28°C° 0.6 mm 2 mps 722 mmHg 54%
    18:00 +27°C° 0.3 mm 2 mps 722 mmHg 58%
    19:00 +25°C° 0.3 mm 2 mps 722 mmHg 65%
    20:00 +23°C° 0 mm 2 mps 722 mmHg 72%
    21:00 +21°C° 0 mm 2 mps 722 mmHg 76%
    22:00 +20°C° 0 mm 1 mps 723 mmHg 80%
    23:00 +19°C° 0 mm 1 mps 723 mmHg 83%

    Tomorrow, 17 July, Tuesday

    Time Temperature Precipitation Wind Pressure Humidity
    00:00 +18°C° 0 mm 1 mps 723 mmHg 85%
    01:00 +18°C° 0 mm 1 mps 723 mmHg 86%
    02:00 +16°C° 0 mm 1 mps 723 mmHg 87%
    03:00 +16°C° 0 mm 1 mps 723 mmHg 87%
    04:00 +16°C° 0 mm 1 mps 723 mmHg 87%
    05:00 +15°C° 0 mm 1 mps 723 mmHg 87%
    06:00 +18°C° 0 mm 1 mps 724 mmHg 80%
    07:00 +19°C° 0 mm 2 mps 724 mmHg 74%
    08:00 +20°C° 0 mm 2 mps 724 mmHg 67%
    09:00 +21°C° 0 mm 2 mps 724 mmHg 61%
    10:00 +23°C° 0 mm 2 mps 724 mmHg 56%
    11:00 +24°C° 0 mm 3 mps 724 mmHg 50%
    12:00 +25°C° 0 mm 3 mps 724 mmHg 47%
    13:00 +26°C° 0 mm 3 mps 724 mmHg 45%
    14:00 +26°C° 0 mm 3 mps 724 mmHg 42%
    15:00 +26°C° 0 mm 3 mps 724 mmHg 42%
    16:00 +26°C° 0 mm 3 mps 724 mmHg 42%
    17:00 +26°C° 0 mm 3 mps 724 mmHg 42%
    18:00 +25°C° 0 mm 3 mps 724 mmHg 48%
    19:00 +24°C° 0 mm 3 mps 725 mmHg 55%
    20:00 +21°C° 0 mm 2 mps 725 mmHg 61%
    21:00 +20°C° 0 mm 2 mps 725 mmHg 67%
    22:00 +18°C° 0 mm 2 mps 725 mmHg 72%
    23:00 +16°C° 0 mm 2 mps 725 mmHg 77%

    Day after tomorrow, 18 July, Wednesday

    Time Temperature Precipitation Wind Pressure Humidity
    00:00 +15°C° 0 mm 2 mps 726 mmHg 81%
    01:00 +15°C° 0 mm 2 mps 726 mmHg 85%
    02:00 +14°C° 0 mm 2 mps 726 mmHg 89%
    03:00 +14°C° 0 mm 2 mps 726 mmHg 90%
    04:00 +14°C° 0 mm 2 mps 726 mmHg 90%
    05:00 +14°C° 0 mm 2 mps 726 mmHg 90%
    06:00 +15°C° 0 mm 2 mps 726 mmHg 82%
    07:00 +17°C° 0 mm 2 mps 726 mmHg 73%
    08:00 +19°C° 0 mm 2 mps 726 mmHg 65%
    09:00 +20°C° 0 mm 3 mps 726 mmHg 62%
    10:00 +22°C° 0 mm 3 mps 726 mmHg 59%
    11:00 +24°C° 0 mm 3 mps 726 mmHg 55%
    12:00 +25°C° 0 mm 3 mps 725 mmHg 54%
    13:00 +25°C° 0 mm 3 mps 725 mmHg 52%
    14:00 +26°C° 0 mm 4 mps 725 mmHg 51%
    15:00 +26°C° 0 mm 4 mps 725 mmHg 51%
    16:00 +26°C° 0 mm 4 mps 724 mmHg 51%
    17:00 +26°C° 0 mm 4 mps 724 mmHg 51%
    18:00 +25°C° 0 mm 4 mps 724 mmHg 56%
    19:00 +23°C° 0 mm 4 mps 724 mmHg 62%
    20:00 +21°C° 0 mm 3 mps 724 mmHg 67%
    21:00 +20°C° 0 mm 3 mps 724 mmHg 72%
    22:00 +18°C° 0 mm 2 mps 724 mmHg 78%
    23:00 +16°C° 0 mm 2 mps 724 mmHg 83%

    19 July, Thursday

    Time Temperature Precipitation Wind Pressure Humidity
    00:00 +16°C° 0 mm 2 mps 724 mmHg 85%
    01:00 +15°C° 0 mm 1 mps 724 mmHg 86%
    02:00 +15°C° 0 mm 1 mps 724 mmHg 88%
    03:00 +15°C° 0.1 mm 1 mps 724 mmHg 88%
    04:00 +15°C° 0.1 mm 1 mps 724 mmHg 88%
    05:00 +15°C° 0.1 mm 1 mps 723 mmHg 87%
    06:00 +18°C° 0 mm 1 mps 723 mmHg 81%
    07:00 +20°C° 0 mm 1 mps 724 mmHg 75%
    08:00 +21°C° 0 mm 1 mps 724 mmHg 69%
    09:00 +23°C° 0 mm 2 mps 723 mmHg 65%
    10:00 +24°C° 0 mm 2 mps 723 mmHg 62%
    11:00 +26°C° 0 mm 2 mps 723 mmHg 59%
    12:00 +27°C° 0.1 mm 2 mps 723 mmHg 57%
    13:00 +27°C° 0.1 mm 2 mps 722 mmHg 55%
    14:00 +28°C° 0.1 mm 2 mps 722 mmHg 53%
    15:00 +28°C° 0 mm 2 mps 722 mmHg 53%
    16:00 +29°C° 0 mm 2 mps 722 mmHg 52%
    17:00 +29°C° 0 mm 2 mps 721 mmHg 51%
    18:00 +28°C° 0 mm 2 mps 721 mmHg 57%
    19:00 +26°C° 0 mm 2 mps 721 mmHg 63%
    20:00 +25°C° 0 mm 1 mps 721 mmHg 69%
    21:00 +24°C° 0 mm 1 mps 721 mmHg 73%
    22:00 +22°C° 0 mm 1 mps 721 mmHg 78%
    23:00 +20°C° 0 mm 1 mps 720 mmHg 82%

    20 July, Friday

    Time Temperature Precipitation Wind Pressure Humidity
    00:00 +20°C° 0 mm 1 mps 720 mmHg 83%
    01:00 +19°C° 0 mm 1 mps 720 mmHg 84%
    02:00 +19°C° 0 mm 1 mps 720 mmHg 85%
    03:00 +19°C° 0 mm 1 mps 720 mmHg 86%
    04:00 +19°C° 0 mm 1 mps 720 mmHg 86%
    05:00 +19°C° 0 mm 1 mps 720 mmHg 86%
    06:00 +21°C° 0 mm 1 mps 719 mmHg 79%
    07:00 +23°C° 0 mm 1 mps 719 mmHg 71%
    08:00 +25°C° 0 mm 1 mps 719 mmHg 64%
    09:00 +27°C° 0 mm 1 mps 719 mmHg 59%
    10:00 +28°C° 0 mm 2 mps 719 mmHg 55%
    11:00 +30°C° 0 mm 2 mps 719 mmHg 50%
    12:00 +31°C° 0 mm 2 mps 718 mmHg 48%
    13:00 +32°C° 0 mm 2 mps 718 mmHg 45%
    14:00 +32°C° 0 mm 2 mps 717 mmHg 42%
    15:00 +33°C° 0 mm 3 mps 717 mmHg 44%
    16:00 +33°C° 0 mm 3 mps 717 mmHg 45%
    17:00 +33°C° 0 mm 3 mps 717 mmHg 46%
    18:00 +30°C° 0.1 mm 3 mps 717 mmHg 53%
    19:00 +29°C° 0.1 mm 2 mps 716 mmHg 60%
    20:00 +27°C° 0.1 mm 2 mps 716 mmHg 67%
    21:00 +26°C° 0.1 mm 2 mps 716 mmHg 69%
    22:00 +25°C° 0.1 mm 2 mps 716 mmHg 71%
    23:00 +24°C° 0.1 mm 2 mps 716 mmHg 73%

    21 July, Saturday

    Time Temperature Precipitation Wind Pressure Humidity
    00:00 +23°C° 0.6 mm 2 mps 715 mmHg 78%
    01:00 +23°C° 0.6 mm 2 mps 715 mmHg 83%
    02:00 +22°C° 0.6 mm 1 mps 714 mmHg 88%
    03:00 +22°C° 0.2 mm 1 mps 714 mmHg 89%
    04:00 +22°C° 0.2 mm 1 mps 714 mmHg 90%
    05:00 +21°C° 0.2 mm 1 mps 713 mmHg 91%
    06:00 +23°C° 0.3 mm 1 mps 713 mmHg 86%
    07:00 +24°C° 0.3 mm 1 mps 714 mmHg 81%
    08:00 +25°C° 0.3 mm 1 mps 714 mmHg 76%
    09:00 +25°C° 0.5 mm 2 mps 714 mmHg 75%
    10:00 +25°C° 0.5 mm 3 mps 714 mmHg 73%
    11:00 +25°C° 0.5 mm 4 mps 714 mmHg 72%
    12:00 +23°C° 0.3 mm 5 mps 714 mmHg 72%
    13:00 +22°C° 0.3 mm 5 mps 714 mmHg 72%
    14:00 +21°C° 0.3 mm 6 mps 715 mmHg 72%
    15:00 +20°C° 0.1 mm 6 mps 715 mmHg 74%
    16:00 +19°C° 0.1 mm 6 mps 716 mmHg 76%
    17:00 +19°C° 0.1 mm 5 mps 716 mmHg 79%
    18:00 +17°C° 0.2 mm 5 mps 717 mmHg 81%
    19:00 +17°C° 0.2 mm 4 mps 717 mmHg 83%
    20:00 +17°C° 0.2 mm 4 mps 718 mmHg 86%
    21:00 +17°C° 0.1 mm 4 mps 718 mmHg 87%
    22:00 +15°C° 0.1 mm 4 mps 718 mmHg 88%
    23:00 +15°C° 0.1 mm 4 mps 718 mmHg 89%
    Show more